Weather observations for the past three days for
Fort Pierce, St. Lucie County International Airport
Metric (Imperial)
Date Time (edt) Wind (kph) Vis. (km) Weather Sky Cond. Temperature (ºC) Relative Humidity Wind Chill (°C) Heat Index (°C) Pressure Precipitation (cm)
Air Dwpt 6 hour altimeter (cm) sea level (mb) 1 hr 3 hr 6 hr
Max. Min.
06 12:53 W 13 16.09 A Few Clouds FEW032 32.2 24.4 63% 39 75.97 1012.7
06 11:53 NW 11 16.09 Fair CLR 30.6 24.4 70% 36 76.02 1013.4
06 10:53 W 13 16.09 Fair CLR 30 25 75% 36 76.07 1014.0
06 09:53 W 9 16.09 Fair CLR 27.8 23.9 79% 32 76.05 1013.8
06 08:53 W 13 16.09 Fair CLR 25 23.9 94% 26 76.07 1014.0
06 07:53 W 7 16.09 Fair CLR 23.9 23.3 24.4 23.3 96% 23 76.02 1013.5
06 06:53 W 6 11.27 Fair CLR 23.9 23.3 96% 23 75.97 1012.6
06 05:53 Calm 16.09 Partly Cloudy SCT006 23.9 23.3 96% 23 75.9 1011.8
06 04:53 W 6 16.09 Fair CLR 23.9 23.3 96% 23 75.87 1011.4
06 03:53 W 7 16.09 Fair CLR 23.9 23.3 96% 23 75.84 1011.2
06 02:53 W 7 16.09 Fair CLR 23.9 23.3 96% 23 75.9 1011.7
06 01:53 Calm 16.09 Fair CLR 23.9 23.3 23.9 23.3 96% 23 76 1013.0 0.05
06 00:53 Calm 16.09 A Few Clouds FEW120 23.3 22.8 97% 76.02 1013.6
05 23:53 Calm 16.09 Fair CLR 23.3 22.2 94% 76.05 1013.6
05 22:53 SW 6 16.09 Fair CLR 23.3 22.8 97% 76.05 1013.6 0.05
05 21:53 NW 7 16.09 Light Rain FEW070 FEW090 SCT110 23.3 22.2 94% 76.02 1013.5
05 20:53 SE 11 12.87 Thunderstorm Light Rain FEW022 BKN070 OVC100 23.9 22.2 90% 23 76.07 1014.2 0.05
05 19:53 SW 30 G 46 16.09 Thunderstorm in Vicinity SCT023 BKN036 OVC095 23.9 22.2 31.1 23.9 90% 23 76.02 1013.5 1.57
05 18:53 E 7 16.09 Mostly Cloudy FEW055 FEW080 BKN100 26.7 25 90% 30 76 1013.0
05 17:53 E 13 16.09 Thunderstorm in Vicinity Light Rain SCT016 SCT080 BKN100 25 22.2 85% 26 75.95 1012.3 1.4
05 16:53 E 19 16.09 Thunderstorm in Vicinity FEW055 30 25 75% 36 75.92 1012.2 0.15 0.18
05 13:53 SW 9 16.09 Partly Cloudy SCT045 33.9 23.9 33.9 25 56% 40 76 1013.3
05 12:53 Vrbl 7 16.09 A Few Clouds FEW035 FEW060 33.9 24.4 58% 41 76.05 1013.8
05 11:53 S 13 16.09 A Few Clouds FEW031 32.2 24.4 63% 39 76.12 1014.7
05 10:53 SW 15 16.09 A Few Clouds FEW027 31.1 24.4 68% 37 76.15 1015.0
05 09:53 S 13 16.09 A Few Clouds FEW018 30 25.6 77% 37 76.15 1015.1
05 08:53 SW 6 16.09 Fair CLR 27.8 26.1 90% 33 76.15 1015.1
05 07:53 Calm 16.09 Fair CLR 25 24.4 25.6 24.4 96% 25 76.12 1014.8
05 06:53 S 6 16.09 Fair CLR 25 24.4 96% 25 76.07 1014.0
05 05:53 S 6 16.09 Fair CLR 25 23.9 94% 26 76.05 1013.9
05 04:53 SW 6 16.09 Fair CLR 25 23.9 94% 26 76.05 1013.9
05 03:53 Calm 14.48 Fair CLR 25 23.9 94% 26 76.07 1014.0
05 02:53 Calm 14.48 Fair CLR 25 24.4 96% 25 76.07 1014.1
05 01:53 Calm 16.09 Partly Cloudy SCT047 25.6 24.4 29.4 25.6 93% 27 76.12 1014.9
05 00:53 Calm 16.09 Fair CLR 26.7 25 90% 30 76.17 1015.5
04 23:53 Calm 16.09 Fair CLR 26.7 25 90% 30 76.2 1015.7
04 22:53 S 7 16.09 Fair CLR 27.2 25 88% 31 76.17 1015.5
04 21:53 S 6 16.09 Fair CLR 27.8 25 85% 32 76.17 1015.5
04 20:53 S 6 16.09 Fair CLR 28.3 25 82% 33 76.15 1015.2
04 19:53 S 9 16.09 Fair CLR 29.4 25.6 32.8 29.4 80% 36 76.12 1014.7
04 18:53 SE 19 16.09 Fair CLR 30.6 25.6 75% 38 76.07 1014.2
04 17:53 SE 22 16.09 Fair CLR 31.1 26.1 75% 39 76.05 1013.8
04 16:53 SE 20 G 37 16.09 Fair CLR 31.7 25 68% 39 76.1 1014.5
04 15:53 E 22 16.09 Fair CLR 32.2 24.4 63% 39 76.1 1014.6
04 14:53 SE 20 16.09 A Few Clouds FEW060 32.8 24.4 61% 39 76.15 1015.2
04 13:53 SE 22 16.09 Partly Cloudy FEW060 FEW075 SCT120 30.6 24.4 33.3 24.4 70% 36 76.2 1015.9
04 12:53 SW 9 16.09 A Few Clouds FEW042 33.3 23.9 58% 39 76.25 1016.3
04 11:53 S 7 16.09 Fair CLR 32.2 24.4 63% 39 76.28 1016.8
04 10:53 SW 11 16.09 Fair CLR 31.1 25 70% 38 76.28 1016.7
04 09:53 SW 9 16.09 Fair CLR 30.6 25.6 75% 38 76.23 1016.1
04 08:53 SW 9 16.09 Fair CLR 27.2 25.6 91% 31 76.2 1015.8
04 07:53 Calm 16.09 Fair CLR 24.4 23.9 27.2 23.9 97% 24 76.17 1015.5
04 06:53 Calm 14.48 Fair CLR 24.4 23.9 97% 24 76.12 1014.9
04 05:53 Calm 14.48 Fair CLR 24.4 23.9 97% 24 76.1 1014.4
04 04:53 Calm 16.09 Fair CLR 24.4 23.9 97% 24 76.07 1014.1
04 03:53 Calm 16.09 Fair CLR 25 23.9 94% 26 76.07 1013.9
04 02:53 Calm 16.09 Fair CLR 26.7 24.4 87% 30 76.07 1014.0
04 01:53 S 6 16.09 Fair CLR 27.2 23.9 27.2 25.6 82% 30 76.1 1014.5
04 00:53 S 7 16.09 Fair CLR 26.1 24.4 90% 28 76.12 1014.7
03 23:53 Calm 16.09 Fair CLR 25.6 24.4 93% 27 76.12 1014.9
03 22:53 Calm 16.09 Fair CLR 25.6 24.4 93% 27 76.15 1015.1
03 21:53 Calm 16.09 A Few Clouds FEW055 26.1 24.4 90% 28 76.17 1015.3
03 20:53 SE 7 16.09 Fair CLR 26.1 24.4 90% 28 76.12 1014.7
03 19:53 SE 11 16.09 Light Rain FEW055 SCT080 26.7 23.9 30.6 26.7 85% 29 76.12 1014.7
03 18:53 SE 15 16.09 A Few Clouds FEW060 28.3 24.4 79% 33 76.07 1014.2
03 17:53 SE 15 16.09 Partly Cloudy FEW018 SCT023 SCT030 28.9 25 80% 34 76.07 1014.1
03 16:53 E 22 16.09 Fair CLR 30.6 25.6 75% 38 76 1013.1
03 15:53 SE 19 16.09 Fair CLR 30 26.1 80% 38 76.05 1013.9
03 14:53 E 17 16.09 Partly Cloudy SCT015 SCT120 28.9 25 80% 34 76.07 1014.1
03 13:53 E 13 16.09 Thunderstorm in Vicinity SCT040 SCT055 BKN070 28.9 25 31.7 25 80% 34 76.1 1014.6
Date Time (edt) Wind (kph) Vis. (km) Weather Sky Cond. Air Dwpt Max. Min. Relative Humidity Wind Chill (°C) Heat Index (°C) altimeter (cm) sea level (mb) 1 hr 3 hr 6 hr
6 hour
Temperature (ºC) Pressure Precipitation (cm)